Home   Weather   Nøtterøy   Past weeks

Flag for Norway Past Weather in Nøtterøy, Norway — Yesterday and Last 2 Weeks

Now
45 °F

Quite cool.


Feels Like: 42 °F
Forecast: 46 / 57 °F
Wind: 5 mph from Southwest

Location: Torp

Current Time: Oct 1, 2016 at 1:53:23 AM

Latest Report: Oct 1, 2016 at 1:20 AM


Visibility: N/A

Pressure: 29.56 "Hg

Humidity: 87%

Dew Point: 41 °F

Location of NøtterøyLocation

Past Weather in Nøtterøy — Graph

°F

Nøtterøy Temperature Yesterday

Maximum temperature yesterday: 57 °F (at 1:50 PM)
Minimum temperature yesterday: 46 °F (at 11:50 PM)
Average temperature yesterday: 52 °F

High & Low Weather Summary for the Past Weeks

 TemperatureHumidityPressure
High70 °F (Sep 20, 3:50 PM)100% (Sep 16, 12:20 AM)30.24 "Hg (Sep 16, 12:20 AM)
Low43 °F (Sep 24, 6:20 AM)44% (Sep 30, 2:50 PM)29.09 "Hg (Sep 29, 6:20 PM)
Average57 °F88%29.99 "Hg
* Reported Sep 16 12:20 AM — Oct 1 12:20 AM, Nøtterøy, Weather by CustomWeather, © 2016

Note: Actual official high and low records may vary slightly from our data, if they occured in-between our weather recording intervals... More about our weather records

Advertising

Nøtterøy Weather History for the Previous 24 Hours

Scroll right to see more
 ConditionsComfort  
Time TempWeatherWind HumidityBarometerVisibility
12:20 AM
Sat, Oct 1
46 °FPassing clouds.No wind82%29.56 "HgN/A
11:50 PM
Fri, Sep 30
46 °FPartly cloudy.9 mph82%29.53 "HgN/A
11:20 PM48 °FPassing clouds.12 mph71%29.53 "HgN/A
10:50 PM48 °FClear.15 mph71%29.53 "Hg10 mi
10:20 PM48 °FClear.13 mph71%29.53 "Hg10 mi
9:50 PM48 °FClear.8 mph71%29.53 "Hg10 mi
9:20 PM50 °FClear.6 mph67%29.50 "Hg10 mi
8:50 PM50 °FClear.9 mph67%29.50 "Hg10 mi
8:20 PM50 °FClear.8 mph67%29.50 "Hg10 mi
7:50 PM52 °FClear.10 mph58%29.47 "Hg10 mi
7:20 PM52 °FPassing clouds.10 mph58%29.47 "HgN/A
6:50 PM54 °FSunny.6 mph54%29.47 "Hg10 mi
6:20 PM55 °FSunny.13 mph51%29.47 "Hg10 mi
5:50 PM55 °FSunny.12 mph47%29.47 "Hg10 mi
5:20 PM55 °FSunny.12 mph47%29.47 "Hg10 mi
4:50 PM57 °FPassing clouds.13 mph48%29.47 "HgN/A
4:20 PM57 °FPassing clouds.16 mph48%29.47 "HgN/A
3:50 PM57 °FSunny.17 mph48%29.47 "Hg10 mi
3:20 PM57 °FPassing clouds.20 mph48%29.47 "HgN/A
2:50 PM57 °FPassing clouds.18 mph44%29.47 "HgN/A
2:20 PM57 °FSunny.17 mph48%29.47 "Hg10 mi
1:50 PM57 °FPassing clouds.18 mph48%29.45 "HgN/A
1:20 PM55 °FSunny.18 mph51%29.45 "Hg10 mi
12:50 PM55 °FPassing clouds.16 mph55%29.45 "HgN/A
12:20 PM55 °FSunny.20 mph55%29.45 "Hg10 mi
11:50 AM54 °FSunny.16 mph54%29.45 "Hg10 mi
11:20 AM54 °FPassing clouds.15 mph54%29.45 "HgN/A
10:50 AM54 °FSunny.13 mph58%29.45 "Hg10 mi
10:20 AM52 °FSunny.13 mph62%29.45 "Hg10 mi
9:50 AM50 °FSunny.16 mph67%29.45 "Hg10 mi
9:20 AM50 °FSunny.14 mph67%29.42 "Hg10 mi
8:50 AM48 °FSunny.16 mph71%29.42 "Hg10 mi
8:20 AM48 °FPassing clouds.6 mph66%29.42 "HgN/A
7:50 AM48 °FSunny.12 mph66%29.42 "Hg10 mi
7:20 AM48 °FClear.12 mph66%29.39 "Hg10 mi
6:50 AM48 °FClear.12 mph66%29.39 "Hg10 mi
6:20 AM48 °FClear.9 mph66%29.39 "Hg10 mi
5:50 AM48 °FClear.10 mph66%29.36 "Hg10 mi
5:20 AM50 °FCool.9 mph58%29.36 "HgN/A
4:50 AM50 °FCool.12 mph58%29.33 "HgN/A
4:20 AM50 °FCool.12 mph58%29.33 "HgN/A
3:50 AM52 °FCool.10 mph54%29.30 "HgN/A
3:20 AM52 °FCool.9 mph54%29.30 "HgN/A
2:50 AM52 °FPassing clouds.10 mph58%29.30 "HgN/A
2:20 AM52 °FPassing clouds.15 mph58%29.27 "HgN/A
1:50 AM52 °FOvercast.12 mph58%29.24 "HgN/A
1:20 AM52 °FPassing clouds.10 mph62%29.24 "HgN/A
Weather by CustomWeather, © 2016

See weather overviewHow to use our weather pages